| time (UTC) | temp C | wind direction | speed KPH | gust KPH | rain 1hr cm | rain 24hr cm | rain mn cm | humidity % | barometer mb |
| 20260502194537 | 12 | 279 | 4.8 | 12.9 | 0.00 | 0.00 | 0.00 | 40 | 1013.0 |
| 20260502193516 | 13 | 313 | 1.6 | 6.4 | 0.00 | 0.00 | 0.00 | 40 | 1013.0 |
| 20260502192517 | 13 | 5 | 3.2 | 6.4 | 0.00 | 0.00 | 0.00 | 40 | 1012.9 |
| 20260502191537 | 13 | 254 | 4.8 | 11.3 | 0.00 | 0.00 | 0.00 | 39 | 1013.2 |
| 20260502190517 | 13 | 345 | 4.8 | 11.3 | 0.00 | 0.00 | 0.00 | 38 | 1013.1 |
| 20260502185517 | 13 | 314 | 3.2 | 8.0 | 0.00 | 0.00 | 0.00 | 40 | 1013.2 |
| 20260502184517 | 13 | 314 | 3.2 | 8.0 | 0.00 | 0.00 | 0.00 | 39 | 1013.1 |
| 20260502183517 | 13 | 336 | 4.8 | 11.3 | 0.00 | 0.00 | 0.00 | 39 | 1013.1 |
| 20260502182518 | 13 | 339 | 4.8 | 16.1 | 0.00 | 0.00 | 0.00 | 38 | 1013.1 |
| 20260502181518 | 13 | 275 | 3.2 | 12.9 | 0.00 | 0.00 | 0.00 | 37 | 1013.0 |
| 20260502180518 | 14 | 308 | 3.2 | 11.3 | 0.00 | 0.00 | 0.00 | 37 | 1013.2 |
| 20260502170516 | 12 | 248 | 3.2 | 8.0 | 0.00 | 0.00 | 0.00 | 40 | 1013.7 |
| 20260502163516 | 12 | 234 | 3.2 | 6.4 | 0.00 | 0.00 | 0.00 | 41 | 1014.2 |
| 20260502162516 | 12 | 358 | 3.2 | 9.7 | 0.00 | 0.00 | 0.00 | 44 | 1014.2 |
| 20260502161517 | 12 | 248 | 3.2 | 8.0 | 0.00 | 0.00 | 0.00 | 45 | 1014.5 |
| 20260502160517 | 11 | 349 | 3.2 | 11.3 | 0.00 | 0.00 | 0.00 | 44 | 1014.6 |
| 20260502151558 | 11 | 197 | 3.2 | 11.3 | 0.00 | 0.00 | 0.00 | 42 | 1014.5 |
| 20260502150518 | 11 | 209 | 3.2 | 6.4 | 0.00 | 0.00 | 0.00 | 47 | 1014.6 |
| 20260502130537 | 7 | 337 | 3.2 | 6.4 | 0.00 | 0.00 | 0.00 | 59 | 1014.8 |
| 20260502123517 | 7 | 180 | 4.8 | 9.7 | 0.00 | 0.00 | 0.00 | 58 | 1014.6 |
| 20260502122516 | 7 | 49 | 1.6 | 4.8 | 0.00 | 0.00 | 0.00 | 64 | 1014.7 |
| 20260502121516 | 6 | 28 | 1.6 | 4.8 | 0.00 | 0.00 | 0.00 | 64 | 1014.8 |
| 20260502120536 | 6 | 19 | 1.6 | 4.8 | 0.00 | 0.00 | 0.00 | 67 | 1014.6 |
| 20260502115516 | 6 | 51 | 0.0 | 3.2 | 0.00 | 0.00 | 0.00 | 66 | 1014.7 |
| 20260502114516 | 6 | 27 | 0.0 | 1.6 | 0.00 | 0.00 | 0.00 | 71 | 1014.7 |
| 20260502113536 | 6 | 197 | 0.0 | 3.2 | 0.00 | 0.00 | 0.00 | 71 | 1014.6 |
| 20260502112517 | 6 | 125 | 0.0 | 3.2 | 0.00 | 0.00 | 0.00 | 72 | 1014.4 |
| 20260502111516 | 6 | 97 | 0.0 | 3.2 | 0.00 | 0.00 | 0.00 | 69 | 1014.3 |
| 20260502110517 | 5 | 354 | 1.6 | 4.8 | 0.00 | 0.00 | 0.00 | 70 | 1014.4 |
| 20260502105517 | 5 | 334 | 0.0 | 3.2 | 0.00 | 0.00 | 0.00 | 72 | 1014.3 |
| 20260502104517 | 5 | 22 | 1.6 | 3.2 | 0.00 | 0.00 | 0.00 | 70 | 1014.3 |
| 20260502103537 | 5 | 21 | 1.6 | 4.8 | 0.00 | 0.00 | 0.00 | 76 | 1014.4 |
| 20260502102538 | 5 | 227 | 1.6 | 3.2 | 0.00 | 0.00 | 0.00 | 76 | 1014.5 |
| 20260502101518 | 5 | 25 | 0.0 | 3.2 | 0.00 | 0.00 | 0.00 | 75 | 1014.6 |
| 20260502100518 | 5 | 42 | 0.0 | 4.8 | 0.00 | 0.00 | 0.00 | 73 | 1014.6 |
| 20260502091515 | 6 | 71 | 1.6 | 4.8 | 0.00 | 0.00 | 0.00 | 69 | 1014.5 |
| 20260502090516 | 6 | 139 | 1.6 | 3.2 | 0.00 | 0.00 | 0.00 | 69 | 1014.5 |
| 20260502071518 | 8 | 267 | 3.2 | 8.0 | 0.00 | 0.00 | 0.00 | 58 | 1014.2 |
| 20260502070518 | 8 | 317 | 3.2 | 9.7 | 0.00 | 0.00 | 0.00 | 59 | 1014.3 |
| 20260502065518 | 8 | 203 | 3.2 | 17.7 | 0.00 | 0.00 | 0.00 | 64 | 1014.3 |
| 20260502064519 | 8 | 256 | 1.6 | 6.4 | 0.00 | 0.00 | 0.00 | 70 | 1014.4 |
| 20260502063556 | 8 | 61 | 0.0 | 1.6 | 0.00 | 0.00 | 0.00 | 74 | 1014.5 |
| 20260502062536 | 8 | 358 | 1.6 | 4.8 | 0.00 | 0.00 | 0.00 | 75 | 1014.4 |
| 20260502061516 | 8 | 40 | 0.0 | 3.2 | 0.00 | 0.00 | 0.00 | 74 | 1014.4 |
| 20260502060516 | 8 | 26 | 0.0 | 1.6 | 0.00 | 0.00 | 0.00 | 72 | 1014.4 |
| 20260502055516 | 8 | 102 | 0.0 | 1.6 | 0.00 | 0.00 | 0.00 | 70 | 1014.5 |
| 20260502054519 | 8 | 146 | 1.6 | 6.4 | 0.00 | 0.00 | 0.00 | 72 | 1014.3 |
| 20260502053516 | 8 | 132 | 0.0 | 1.6 | 0.00 | 0.00 | 0.00 | 70 | 1014.3 |
| 20260502052537 | 8 | 310 | 3.2 | 6.4 | 0.00 | 0.00 | 0.00 | 68 | 1014.3 |
| 20260502051517 | 9 | 352 | 0.0 | 3.2 | 0.00 | 0.00 | 0.00 | 70 | 1014.2 |
| 20260502050537 | 9 | 33 | 0.0 | 3.2 | 0.00 | 0.00 | 0.00 | 67 | 1014.1 |
| 20260502045517 | 10 | 0 | 0.0 | 1.6 | 0.00 | 0.00 | 0.00 | 65 | 1014.3 |
| 20260502044517 | 10 | 202 | 1.6 | 3.2 | 0.00 | 0.00 | 0.00 | 65 | 1014.5 |
| 20260502043517 | 10 | 18 | 0.0 | 3.2 | 0.00 | 0.00 | 0.00 | 68 | 1014.4 |
| 20260502042518 | 10 | 221 | 1.6 | 6.4 | 0.00 | 0.00 | 0.00 | 65 | 1014.3 |
| 20260502041538 | 10 | 335 | 1.6 | 3.2 | 0.00 | 0.00 | 0.00 | 69 | 1014.4 |
| 20260502040518 | 10 | 60 | 0.0 | 1.6 | 0.00 | 0.00 | 0.00 | 68 | 1014.2 |
| 20260502035538 | 10 | 259 | 0.0 | 3.2 | 0.00 | 0.00 | 0.00 | 66 | 1014.1 |
| 20260502034538 | 11 | 306 | 1.6 | 4.8 | 0.00 | 0.00 | 0.00 | 63 | 1014.1 |
| 20260502033516 | 11 | 328 | 1.6 | 3.2 | 0.00 | 0.00 | 0.00 | 66 | 1014.2 |
| 20260502032516 | 11 | 288 | 1.6 | 9.7 | 0.00 | 0.00 | 0.00 | 66 | 1014.2 |
| 20260502031516 | 11 | 334 | 0.0 | 3.2 | 0.00 | 0.00 | 0.00 | 66 | 1014.1 |
| 20260502030516 | 11 | 307 | 1.6 | 6.4 | 0.00 | 0.00 | 0.00 | 66 | 1014.0 |
| 20260502025516 | 11 | 289 | 1.6 | 9.7 | 0.00 | 0.00 | 0.00 | 66 | 1014.0 |
| 20260502024516 | 11 | 235 | 1.6 | 3.2 | 0.00 | 0.00 | 0.00 | 69 | 1014.0 |
| 20260502023516 | 11 | 195 | 0.0 | 1.6 | 0.00 | 0.00 | 0.00 | 67 | 1013.9 |
| 20260502022536 | 11 | 141 | 0.0 | 3.2 | 0.00 | 0.00 | 0.00 | 66 | 1013.7 |
| 20260502021517 | 11 | 308 | 0.0 | 3.2 | 0.00 | 0.00 | 0.00 | 66 | 1013.5 |
| 20260502020517 | 11 | 285 | 1.6 | 6.4 | 0.00 | 0.00 | 0.00 | 65 | 1013.2 |
| 20260502015517 | 12 | 138 | 1.6 | 4.8 | 0.00 | 0.00 | 0.00 | 67 | 1012.7 |
| 20260502014517 | 12 | 152 | 1.6 | 3.2 | 0.00 | 0.00 | 0.00 | 65 | 1012.6 |
| 20260502013542 | 13 | 122 | 1.6 | 3.2 | 0.00 | 0.00 | 0.00 | 61 | 1012.4 |
| 20260502012517 | 13 | 207 | 1.6 | 6.4 | 0.00 | 0.00 | 0.00 | 55 | 1012.2 |
| 20260502011518 | 13 | 198 | 1.6 | 6.4 | 0.00 | 0.00 | 0.00 | 52 | 1011.9 |
| 20260502010538 | 13 | 250 | 1.6 | 8.0 | 0.00 | 0.00 | 0.00 | 51 | 1011.7 |
| 20260502005516 | 13 | 198 | 1.6 | 6.4 | 0.00 | 0.00 | 0.00 | 50 | 1011.6 |
| 20260502004515 | 12 | 344 | 0.0 | 1.6 | 0.00 | 0.00 | 0.00 | 58 | 1011.2 |
| 20260502003518 | 13 | 16 | 0.0 | 1.6 | 0.00 | 0.00 | 0.00 | 54 | 1011.0 |
| 20260502002515 | 13 | 70 | 0.0 | 3.2 | 0.00 | 0.00 | 0.00 | 53 | 1010.8 |
| 20260502001516 | 14 | 74 | 1.6 | 3.2 | 0.00 | 0.00 | 0.00 | 52 | 1010.7 |
| 20260502000516 | 15 | 39 | 0.0 | 1.6 | 0.00 | 0.00 | 0.00 | 52 | 1010.5 |
| 20260501235516 | 16 | 210 | 1.6 | 3.2 | 0.00 | 0.00 | 0.00 | 50 | 1010.4 |
| 20260501234516 | 16 | 205 | 1.6 | 4.8 | 0.00 | 0.00 | 0.00 | 45 | 1010.1 |
| 20260501233516 | 17 | 252 | 1.6 | 6.4 | 0.00 | 0.00 | 0.00 | 44 | 1010.1 |
| 20260501232537 | 17 | 321 | 1.6 | 4.8 | 0.00 | 0.00 | 0.00 | 40 | 1010.0 |
| 20260501231517 | 17 | 335 | 1.6 | 6.4 | 0.00 | 0.00 | 0.00 | 38 | 1010.1 |
| 20260501230537 | 18 | 215 | 3.2 | 8.0 | 0.00 | 0.00 | 0.00 | 40 | 1010.1 |
| 20260501225517 | 18 | 316 | 1.6 | 4.8 | 0.00 | 0.00 | 0.00 | 43 | 1010.0 |
| 20260501224518 | 18 | 304 | 1.6 | 4.8 | 0.00 | 0.00 | 0.00 | 34 | 1009.9 |
| 20260501223517 | 18 | 142 | 3.2 | 8.0 | 0.00 | 0.00 | 0.00 | 39 | 1009.9 |
| 20260501222518 | 18 | 301 | 3.2 | 4.8 | 0.00 | 0.00 | 0.00 | 45 | 1009.9 |
| 20260501221518 | 18 | 272 | 3.2 | 9.7 | 0.00 | 0.00 | 0.00 | 44 | 1009.9 |
| 20260501220518 | 18 | 46 | 1.6 | 9.7 | 0.00 | 0.00 | 0.00 | 43 | 1010.0 |
| 20260501215515 | 18 | 174 | 3.2 | 9.7 | 0.00 | 0.00 | 0.00 | 44 | 1009.9 |
| 20260501214519 | 18 | 198 | 3.2 | 8.0 | 0.00 | 0.00 | 0.00 | 42 | 1010.0 |
| 20260501213516 | 18 | 347 | 3.2 | 16.1 | 0.00 | 0.00 | 0.00 | 44 | 1010.0 |
| 20260501212516 | 18 | 351 | 3.2 | 11.3 | 0.00 | 0.00 | 0.00 | 44 | 1010.1 |
| 20260501211516 | 18 | 335 | 1.6 | 6.4 | 0.00 | 0.00 | 0.00 | 40 | 1010.2 |
| 20260501210536 | 18 | 155 | 3.2 | 6.4 | 0.00 | 0.00 | 0.00 | 40 | 1010.2 |
| 20260501205517 | 19 | 344 | 1.6 | 9.7 | 0.00 | 0.00 | 0.00 | 40 | 1010.2 |
| 20260501204517 | 18 | 323 | 3.2 | 9.7 | 0.00 | 0.00 | 0.00 | 41 | 1010.2 |
| 20260501203517 | 19 | 301 | 1.6 | 4.8 | 0.00 | 0.00 | 0.00 | 39 | 1010.2 |
| 20260501202537 | 20 | 26 | 3.2 | 11.3 | 0.00 | 0.00 | 0.00 | 36 | 1010.3 |
| 20260501201517 | 20 | 34 | 3.2 | 12.9 | 0.00 | 0.00 | 0.00 | 38 | 1010.5 |
| 20260501200538 | 20 | 250 | 3.2 | 11.3 | 0.00 | 0.00 | 0.00 | 37 | 1010.5 |
| 20260501195538 | 19 | 315 | 3.2 | 8.0 | 0.00 | 0.00 | 0.00 | 38 | 1010.8 |